SCP
-0 -0 -0 -0 -0 -0 -0 -0 0 0 0 0 0 0 0 0 0 0 0 0 0 0 -0 0 0 0 -0 0 0 0 0 0 0 0 0 0 0 0 0 0 0 0 0 0 -0
-0 -0 -0 -0 -0 -0 -0 -0 -0 -0 -0 0 0 0 0 0 0 0 0 0 0 0 0 0 0 0 0 0 0 0 0 0 0 0 0 0 0 0 0 0 0 0 0 -0 -0
-0 -0 -0 -0 -0 -0 -0 -0 -0 -0 -0 0 0 0 0 0 0 0 0 0 -0 -0 -0 0 0 0 0 0 0 0 0 0 0 0 0 0 0 0 0 0 0 0 0 0 -0
-0 -0 -0 -0 -0 -0 -0 -0 -0 -0 -0 0 0 0 0 -0 0 0 0 0 -0 -0 0 0 0 0 0 0 0 0 0 0 0 0 0 0 0 0 0 0 0 0 0 0 0
-0 -0 -0 -0 -0 -0 -0 -0 -0 -0 -0 -0 0 0 0 0 0 0 0 0 -0 -0 0 0 0 0 0 0 0 0 0 0 0 0 0 0 0 0 0 0 0 0 0 0 0
-0 -0 -0 -0 -0 -0 -0 -0 -0 -0 -0 -0 -0 -0 0 -0 0 0 0 0 0 0 0 0 0 0 0 0 0 0 0 0 0 0 0 0 0 0 0 0 0 0 0 0 0
-0 -0 -0 -0 -0 -0 -0 -0 -0 -0 -0 0 -0 -0 -0 -0 -0 -0 0 0 0 0 0 0 0 0 0 0 0 0 0 0 0 0 0 0 0 0 0 0 0 0 0 0 0
-0 -0 -0 -0 -0 -0 -0 -0 -0 0 0 0 0 0 0 0 -0 0 0 -0 -0 0 0 0 0 0 0 0 0 0 0 0 0 0 0 0 0 0 0 0 0 0 0 0 0
-0 -0 -0 -0 -0 -0 -0 -0 0 0 0 -0 -0 -0 -0 -0 -0 -0 0 -0 -0 -0 0 -0 -0 0 0 0 0 0 0 0 0 0 0 0 0 0 0 0 0 0 0 0 0
-0 -0 -0 -0 -0 -0 -0 0 -0 0 0 -0 -0 0 -0 -0 -0 0 0 -0 -0 -0 -0 -0 -0 -0 -0 -0 0 0 0 0 0 0 0 0 0 0 0 0 0 0 0 0 0
-0 -0 -0 -0 -0 -0 -0 0 -0 -0 0 0 0 0 0 -0 -0 0 0 -0 -0 -0 0 -0 -0 -0 0 0 0 0 0 0 0 0 0 0 0 0 0 0 0 0 1 1 1
-0 -0 -0 -0 -0 0 -0 0 0 -0 0 0 0 -0 -0 -0 0 -0 -0 -0 -0 0 0 0 0 0 0 0 0 0 0 0 0 0 0 0 0 0 0 0 0 0 0 1 1
-0 -0 -0 0 -0 -0 0 0 0 -0 0 0 0 0 0 -0 0 0 -0 -0 0 0 0 0 0 0 0 0 0 0 0 0 0 0 0 0 0 0 0 0 0 0 0 0 0
-0 -0 0 -0 -0 0 0 0 0 -0 0 0 0 0 -0 -0 0 -0 -0 -0 0 0 0 0 0 0 0 0 0 0 0 0 0 0 0 0 0 0 0 0 0 0 0 0 0
-0 0 0 0 0 0 0 0 0 -0 0 0 0 0 0 0 0 0 0 -0 0 0 0 0 0 0 0 0 0 0 0 0 0 0 0 0 0 0 0 0 0 0 0 0 0
-0 -0 -0 -0 0 0 0 0 0 0 0 0 0 0 0 0 0 0 0 0 0 0 0 0 0 0 0 0 0 0 0 0 0 0 0 0 0 0 0 0 0 0 0 0 0
-0 -0 -0 -0 0 0 0 0 0 0 0 0 0 0 0 0 0 0 0 0 0 0 0 0 0 0 0 0 0 0 0 0 0 0 0 0 0 0 0 0 0 0 0 0 0
-0 -0 0 -0 -0 -0 -0 0 0 0 0 0 0 0 0 0 0 0 0 0 0 0 0 0 0 0 0 0 0 0 0 0 0 0 0 0 0 0 0 0 0 0 0 0 0
0 0 0 0 0 -0 -0 0 0 0 0 0 0 0 0 0 0 0 0 0 0 0 0 0 0 0 0 0 0 0 0 0 0 0 0 0 0 0 0 0 0 0 0 0 0
-0 -0 0 0 0 0 0 0 0 0 0 0 0 0 0 0 0 0 0 0 0 0 0 0 0 0 0 0 0 0 0 0 0 0 0 0 0 0 0 0 0 0 0 0 0
-0 0 0 0 -0 0 0 0 0 0 0 0 0 0 0 0 0 0 0 0 0 0 0 0 0 0 0 0 0 0 0 0 0 0 0 0 0 0 0 0 0 0 0 0 0
-0 0 0 0 0 0 0 0 0 0 0 0 0 0 0 0 0 0 0 0 0 0 0 0 0 0 0 0 0 0 0 0 0 0 0 0 0 0 0 0 0 0 0 0 0
0 0 0 0 0 0 0 0 0 0 0 0 0 0 0 0 0 0 0 0 0 0 0 0 0 0 0 0 0 0 0 0 0 0 0 0 0 0 0 0 0 0 0 0 0
-0 0 0 0 0 0 0 0 0 0 0 0 0 0 0 0 0 0 0 0 0 0 0 0 0 0 0 0 0 0 0 0 0 0 0 0 0 0 0 0 0 0 0 0 0
0 0 0 0 0 0 0 0 0 0 0 0 0 0 0 0 0 0 0 0 0 0 0 0 0 0 0 0 0 0 0 0 0 0 0 0 0 0 0 0 0 0 0 0 0
0 0 0 0 0 0 0 0 0 0 0 0 0 0 0 0 0 0 0 0 0 0 0 0 0 0 0 0 0 0 0 0 0 0 0 0 0 0 0 0 0 0 0 0 0
0 0 -0 0 0 0 0 0 0 0 0 0 0 0 0 0 0 0 0 0 0 0 0 0 0 0 0 0 0 0 0 0 0 0 0 0 0 0 0 0 0 0 0 0 0
Wind_Speed_500mb
31 31 29 25 22 20 20 22 20 16 11 10 10 8 6 5 5 5 7 6 12 16 14 15 13 14 12 10 9 7 11 9 9 15 8 8 12 22 6 5 8 10 17 16 33
32 31 30 25 21 19 22 23 22 16 10 7 7 6 3 1 16 5 2 1 13 20 11 12 13 18 18 12 10 15 12 6 4 4 8 12 13 16 7 15 15 17 16 21 29
32 32 30 25 20 20 24 26 23 14 8 4 6 7 7 14 10 5 6 2 10 19 11 10 15 16 15 14 10 8 6 6 5 8 13 16 14 13 10 11 20 14 14 15 22
33 32 30 25 19 21 27 28 20 12 6 0 6 11 12 21 4 5 4 8 15 18 12 12 16 16 14 16 13 13 3 5 1 3 13 15 19 16 7 19 15 5 4 10 18
35 31 28 22 17 23 30 28 18 11 5 5 10 15 20 10 15 11 14 15 14 14 13 14 16 11 13 9 12 15 8 5 6 12 13 17 18 14 20 12 15 10 4 5 13
36 29 26 19 15 21 28 22 19 14 9 10 15 18 17 15 15 14 20 14 10 10 12 11 9 6 9 7 11 3 5 7 8 12 12 17 17 13 6 18 16 11 9 13 15
37 29 23 16 13 19 26 17 16 15 13 13 17 21 7 14 14 12 16 10 11 15 14 8 10 8 10 13 3 4 16 9 5 4 3 13 24 22 17 18 22 18 17 17 22
40 30 22 16 9 17 22 15 6 15 11 16 21 18 15 10 8 11 13 11 20 15 12 9 6 8 2 3 9 9 14 15 13 5 7 11 15 3 13 16 21 21 21 23 26
43 30 21 16 9 15 19 10 5 12 10 15 16 10 19 16 10 15 15 14 15 10 10 13 4 2 10 17 15 10 7 6 10 7 7 5 13 5 15 14 13 16 21 26 25
43 30 19 12 7 14 18 4 6 9 11 16 12 8 12 13 13 18 16 18 13 17 12 8 9 13 9 14 13 2 9 9 8 6 12 16 16 12 9 12 15 22 26 30 24
43 29 16 7 3 12 15 11 1 4 3 3 6 7 17 9 16 14 12 16 13 11 6 10 13 10 8 8 7 1 6 8 4 5 17 16 19 18 6 14 20 25 31 35 28
41 27 13 1 7 9 20 8 8 1 8 5 5 6 8 12 18 15 11 9 11 8 11 15 14 7 4 3 4 7 10 3 15 5 18 22 28 21 4 15 25 31 36 38 34
39 24 10 3 12 8 13 13 9 5 7 10 5 8 9 7 12 17 7 8 7 10 7 9 13 3 6 6 10 1 14 10 17 22 31 15 34 22 16 17 24 30 34 39 40
36 24 12 11 10 6 2 9 5 4 11 17 15 9 8 6 9 4 4 2 4 9 3 9 6 2 5 0 14 14 9 16 21 20 15 8 8 20 20 14 26 34 37 39 43
38 28 16 7 11 2 4 10 5 1 9 19 12 5 5 5 9 7 4 8 2 6 11 13 3 1 5 6 11 10 21 23 27 28 27 26 12 16 11 13 23 33 36 36 38
28 31 22 16 10 4 6 1 3 12 7 14 7 10 16 1 5 5 8 5 1 6 3 9 4 4 8 6 7 16 21 32 22 18 20 12 10 10 11 13 21 28 30 31 32
14 22 25 18 6 10 4 7 11 11 8 10 7 5 6 4 6 2 3 9 11 11 15 13 5 4 7 16 13 16 19 13 12 14 3 11 14 18 15 15 19 23 26 25 29
9 13 26 24 15 7 7 11 13 5 2 6 5 10 6 3 6 2 7 13 4 12 18 17 14 6 4 8 13 13 12 12 12 13 11 14 11 14 14 10 13 16 17 18 24
11 12 16 31 15 5 14 14 7 2 3 5 10 12 9 7 6 7 5 6 6 7 10 8 7 9 6 5 9 8 10 12 15 13 13 8 9 17 8 4 9 13 12 13 17
9 6 16 31 16 3 12 8 4 5 3 5 10 5 9 5 9 6 4 5 6 6 6 7 16 7 6 9 6 15 7 10 11 7 10 8 10 12 5 14 13 13 8 7 16
7 5 21 24 10 7 2 8 8 10 7 8 0 3 1 1 5 4 3 10 1 5 3 5 6 13 8 14 8 10 14 8 9 8 8 10 4 10 9 5 12 15 5 10 17
9 1 32 10 3 4 7 5 3 2 2 0 1 0 2 0 5 5 5 4 3 3 7 6 8 17 11 7 4 11 10 11 10 9 11 12 13 14 2 9 15 21 12 13 20
7 6 17 14 4 7 6 3 4 4 3 2 5 6 3 5 7 7 5 7 5 5 3 6 7 14 17 13 16 17 15 16 14 13 20 19 10 10 9 24 31 25 22 23 24
6 2 9 23 12 9 6 3 3 5 0 4 3 7 9 10 8 5 10 8 3 6 2 3 19 24 24 26 13 15 20 22 24 20 22 29 35 32 28 26 27 26 28 31 30
9 6 5 6 11 8 5 3 4 1 3 3 9 15 11 9 10 14 7 9 14 9 9 10 27 29 30 31 27 31 34 33 36 35 34 35 37 32 31 28 30 27 30 28 33
3 3 1 5 2 7 1 1 6 2 6 5 10 4 10 16 14 13 10 12 14 9 17 12 21 19 29 28 27 39 42 40 41 39 39 38 40 28 19 29 29 29 26 21 25
5 4 2 6 1 7 4 1 4 11 8 9 5 12 12 6 8 14 17 21 22 20 18 20 16 15 25 12 19 26 35 38 35 31 27 26 18 20 22 25 28 26 18 10 11
Wind_Direction_500mb
3 0 359 356 353 356 360 354 343 330 310 278 262 261 268 281 318 104 46 212 180 165 133 156 176 191 178 185 195 223 239 202 138 193 84 19 349 20 18 167 139 100 75 111 151
3 1 360 358 358 5 2 356 348 337 322 273 241 234 222 66 113 100 9 110 177 176 150 174 179 179 192 192 187 244 262 114 61 29 313 322 336 357 328 165 146 124 87 121 151
1 0 0 0 6 6 2 358 350 345 332 272 208 176 149 138 138 75 353 43 158 176 188 189 176 186 195 197 180 180 285 129 172 315 315 311 294 332 319 131 52 56 105 145 163
358 0 1 2 8 6 4 358 355 357 357 30 169 159 146 156 132 31 43 138 135 138 156 161 177 192 195 191 183 216 162 219 29 308 310 306 322 301 314 11 330 5 52 158 185
355 357 1 4 9 7 3 360 7 14 31 106 143 147 134 153 95 77 74 126 137 142 169 173 181 186 184 153 180 241 160 204 251 286 293 299 281 315 282 354 353 0 335 218 221
354 353 359 5 11 7 3 9 27 39 65 112 134 137 141 130 120 94 77 91 156 149 155 167 179 182 152 153 253 89 249 260 273 286 271 277 272 283 195 334 324 324 293 258 246
355 350 355 359 7 8 5 14 36 47 67 104 123 127 95 107 129 111 91 113 134 141 143 130 138 237 167 161 130 214 259 192 175 2 121 308 253 230 268 321 314 303 300 287 261
357 349 348 353 348 355 360 9 31 36 76 100 118 105 90 104 120 136 126 118 121 122 123 132 111 119 281 138 195 240 240 215 128 283 133 294 263 72 277 331 302 302 312 311 279
357 350 341 348 340 353 359 12 60 37 88 105 111 107 106 88 91 145 142 139 138 132 126 125 108 122 188 222 201 198 227 252 177 121 321 253 311 291 294 313 318 331 330 331 302
354 347 335 343 357 3 359 87 77 53 105 84 106 155 139 94 113 133 134 145 142 138 148 193 196 199 207 227 255 142 233 202 258 104 295 261 269 306 15 328 5 5 0 356 345
351 345 334 335 47 27 25 106 185 118 32 346 71 68 116 116 130 142 138 141 154 214 179 189 213 58 43 22 36 31 271 285 305 76 298 275 284 282 355 16 22 17 15 8 4
355 349 341 305 139 71 56 96 56 154 137 73 88 94 133 152 130 136 154 194 206 134 164 202 86 71 88 148 234 253 269 288 275 310 302 287 289 279 71 49 41 26 22 12 7
2 4 5 137 155 108 85 64 47 89 208 139 133 126 122 156 114 133 173 134 119 159 184 33 71 139 223 185 250 237 319 326 312 309 270 279 266 216 133 80 43 31 25 17 9
12 20 47 107 129 140 36 2 24 126 199 146 166 133 162 159 133 148 173 286 181 117 160 74 78 165 256 38 297 267 9 290 297 305 302 20 295 184 156 134 38 23 22 18 14
30 38 60 77 125 90 270 341 132 212 214 149 148 138 174 266 108 134 188 226 261 130 255 93 180 323 277 34 326 350 319 293 292 288 290 251 244 116 141 129 17 14 19 16 18
38 43 51 63 56 301 289 103 143 227 179 150 155 178 194 136 108 133 182 182 115 226 293 103 124 341 10 255 300 305 287 281 278 256 241 94 267 106 57 12 3 14 21 18 26
19 20 20 19 338 341 228 172 217 260 144 146 148 189 160 122 115 319 210 192 271 246 197 169 188 160 321 270 188 304 303 276 233 202 297 123 270 59 86 35 19 17 25 27 37
292 8 7 10 354 348 165 218 244 69 134 116 152 137 203 334 116 159 213 222 126 273 284 276 202 201 10 355 323 315 318 299 287 292 325 185 249 104 67 66 38 32 42 39 55
296 296 358 356 354 325 222 228 42 68 69 175 162 217 159 144 306 241 279 302 20 347 276 285 210 136 31 342 301 96 262 16 286 235 264 230 137 148 106 73 30 25 36 60 70
328 255 344 346 349 138 231 56 117 45 346 242 239 280 209 151 247 251 207 90 128 41 347 61 280 169 111 257 140 290 52 218 197 262 263 210 255 274 92 360 4 15 45 112 113
32 227 346 338 12 235 174 84 108 56 5 340 333 187 62 340 314 290 59 107 305 115 337 312 256 139 215 210 294 178 207 241 304 273 277 285 264 79 327 15 334 340 327 172 166
32 250 351 28 208 6 77 28 339 3 29 79 296 149 241 213 275 256 254 347 110 261 288 56 293 273 299 91 283 273 265 256 267 220 258 307 273 43 104 358 328 311 274 216 194
15 11 359 23 48 73 91 120 36 0 27 274 191 255 219 234 263 231 208 108 134 249 269 154 228 276 189 191 200 244 222 247 268 273 261 262 255 135 237 291 302 287 273 236 229
358 301 43 50 55 353 6 55 189 14 53 301 267 222 212 227 211 210 211 152 198 244 276 267 266 259 279 316 318 246 237 236 246 261 260 246 270 283 299 310 303 290 269 251 228
15 75 352 27 57 23 312 307 292 332 302 269 204 237 225 242 231 230 236 218 203 186 233 253 263 269 268 279 281 268 271 268 248 251 261 280 291 297 304 316 318 308 299 253 232
16 278 120 103 318 304 141 54 298 326 292 194 274 309 254 252 259 280 247 253 274 186 248 211 263 272 273 275 268 276 270 264 259 262 266 275 278 282 290 308 322 317 300 252 231
118 97 191 142 186 288 57 166 234 318 257 245 347 297 242 290 315 293 292 284 275 270 256 246 265 247 282 306 292 273 261 252 256 258 262 268 294 350 307 324 328 322 305 249 204
Wind_Speed_850mb
31 31 29 25 22 20 20 22 20 16 11 10 10 8 6 5 5 5 7 6 12 16 14 15 13 14 12 10 9 7 11 9 9 15 8 8 12 22 6 5 8 10 17 16 33
32 31 30 25 21 19 22 23 22 16 10 7 7 6 3 1 16 5 2 1 13 20 11 12 13 18 18 12 10 15 12 6 4 4 8 12 13 16 7 15 15 17 16 21 29
32 32 30 25 20 20 24 26 23 14 8 4 6 7 7 14 10 5 6 2 10 19 11 10 15 16 15 14 10 8 6 6 5 8 13 16 14 13 10 11 20 14 14 15 22
33 32 30 25 19 21 27 28 20 12 6 0 6 11 12 21 4 5 4 8 15 18 12 12 16 16 14 16 13 13 3 5 1 3 13 15 19 16 7 19 15 5 4 10 18
35 31 28 22 17 23 30 28 18 11 5 5 10 15 20 10 15 11 14 15 14 14 13 14 16 11 13 9 12 15 8 5 6 12 13 17 18 14 20 12 15 10 4 5 13
36 29 26 19 15 21 28 22 19 14 9 10 15 18 17 15 15 14 20 14 10 10 12 11 9 6 9 7 11 3 5 7 8 12 12 17 17 13 6 18 16 11 9 13 15
37 29 23 16 13 19 26 17 16 15 13 13 17 21 7 14 14 12 16 10 11 15 14 8 10 8 10 13 3 4 16 9 5 4 3 13 24 22 17 18 22 18 17 17 22
40 30 22 16 9 17 22 15 6 15 11 16 21 18 15 10 8 11 13 11 20 15 12 9 6 8 2 3 9 9 14 15 13 5 7 11 15 3 13 16 21 21 21 23 26
43 30 21 16 9 15 19 10 5 12 10 15 16 10 19 16 10 15 15 14 15 10 10 13 4 2 10 17 15 10 7 6 10 7 7 5 13 5 15 14 13 16 21 26 25
43 30 19 12 7 14 18 4 6 9 11 16 12 8 12 13 13 18 16 18 13 17 12 8 9 13 9 14 13 2 9 9 8 6 12 16 16 12 9 12 15 22 26 30 24
43 29 16 7 3 12 15 11 1 4 3 3 6 7 17 9 16 14 12 16 13 11 6 10 13 10 8 8 7 1 6 8 4 5 17 16 19 18 6 14 20 25 31 35 28
41 27 13 1 7 9 20 8 8 1 8 5 5 6 8 12 18 15 11 9 11 8 11 15 14 7 4 3 4 7 10 3 15 5 18 22 28 21 4 15 25 31 36 38 34
39 24 10 3 12 8 13 13 9 5 7 10 5 8 9 7 12 17 7 8 7 10 7 9 13 3 6 6 10 1 14 10 17 22 31 15 34 22 16 17 24 30 34 39 40
36 24 12 11 10 6 2 9 5 4 11 17 15 9 8 6 9 4 4 2 4 9 3 9 6 2 5 0 14 14 9 16 21 20 15 8 8 20 20 14 26 34 37 39 43
38 28 16 7 11 2 4 10 5 1 9 19 12 5 5 5 9 7 4 8 2 6 11 13 3 1 5 6 11 10 21 23 27 28 27 26 12 16 11 13 23 33 36 36 38
28 31 22 16 10 4 6 1 3 12 7 14 7 10 16 1 5 5 8 5 1 6 3 9 4 4 8 6 7 16 21 32 22 18 20 12 10 10 11 13 21 28 30 31 32
14 22 25 18 6 10 4 7 11 11 8 10 7 5 6 4 6 2 3 9 11 11 15 13 5 4 7 16 13 16 19 13 12 14 3 11 14 18 15 15 19 23 26 25 29
9 13 26 24 15 7 7 11 13 5 2 6 5 10 6 3 6 2 7 13 4 12 18 17 14 6 4 8 13 13 12 12 12 13 11 14 11 14 14 10 13 16 17 18 24
11 12 16 31 15 5 14 14 7 2 3 5 10 12 9 7 6 7 5 6 6 7 10 8 7 9 6 5 9 8 10 12 15 13 13 8 9 17 8 4 9 13 12 13 17
9 6 16 31 16 3 12 8 4 5 3 5 10 5 9 5 9 6 4 5 6 6 6 7 16 7 6 9 6 15 7 10 11 7 10 8 10 12 5 14 13 13 8 7 16
7 5 21 24 10 7 2 8 8 10 7 8 0 3 1 1 5 4 3 10 1 5 3 5 6 13 8 14 8 10 14 8 9 8 8 10 4 10 9 5 12 15 5 10 17
9 1 32 10 3 4 7 5 3 2 2 0 1 0 2 0 5 5 5 4 3 3 7 6 8 17 11 7 4 11 10 11 10 9 11 12 13 14 2 9 15 21 12 13 20
7 6 17 14 4 7 6 3 4 4 3 2 5 6 3 5 7 7 5 7 5 5 3 6 7 14 17 13 16 17 15 16 14 13 20 19 10 10 9 24 31 25 22 23 24
6 2 9 23 12 9 6 3 3 5 0 4 3 7 9 10 8 5 10 8 3 6 2 3 19 24 24 26 13 15 20 22 24 20 22 29 35 32 28 26 27 26 28 31 30
9 6 5 6 11 8 5 3 4 1 3 3 9 15 11 9 10 14 7 9 14 9 9 10 27 29 30 31 27 31 34 33 36 35 34 35 37 32 31 28 30 27 30 28 33
3 3 1 5 2 7 1 1 6 2 6 5 10 4 10 16 14 13 10 12 14 9 17 12 21 19 29 28 27 39 42 40 41 39 39 38 40 28 19 29 29 29 26 21 25
5 4 2 6 1 7 4 1 4 11 8 9 5 12 12 6 8 14 17 21 22 20 18 20 16 15 25 12 19 26 35 38 35 31 27 26 18 20 22 25 28 26 18 10 11
Wind_Direction_850mb
3 0 359 356 353 356 360 354 343 330 310 278 262 261 268 281 318 104 46 212 180 165 133 156 176 191 178 185 195 223 239 202 138 193 84 19 349 20 18 167 139 100 75 111 151
3 1 360 358 358 5 2 356 348 337 322 273 241 234 222 66 113 100 9 110 177 176 150 174 179 179 192 192 187 244 262 114 61 29 313 322 336 357 328 165 146 124 87 121 151
1 0 0 0 6 6 2 358 350 345 332 272 208 176 149 138 138 75 353 43 158 176 188 189 176 186 195 197 180 180 285 129 172 315 315 311 294 332 319 131 52 56 105 145 163
358 0 1 2 8 6 4 358 355 357 357 30 169 159 146 156 132 31 43 138 135 138 156 161 177 192 195 191 183 216 162 219 29 308 310 306 322 301 314 11 330 5 52 158 185
355 357 1 4 9 7 3 360 7 14 31 106 143 147 134 153 95 77 74 126 137 142 169 173 181 186 184 153 180 241 160 204 251 286 293 299 281 315 282 354 353 0 335 218 221
354 353 359 5 11 7 3 9 27 39 65 112 134 137 141 130 120 94 77 91 156 149 155 167 179 182 152 153 253 89 249 260 273 286 271 277 272 283 195 334 324 324 293 258 246
355 350 355 359 7 8 5 14 36 47 67 104 123 127 95 107 129 111 91 113 134 141 143 130 138 237 167 161 130 214 259 192 175 2 121 308 253 230 268 321 314 303 300 287 261
357 349 348 353 348 355 360 9 31 36 76 100 118 105 90 104 120 136 126 118 121 122 123 132 111 119 281 138 195 240 240 215 128 283 133 294 263 72 277 331 302 302 312 311 279
357 350 341 348 340 353 359 12 60 37 88 105 111 107 106 88 91 145 142 139 138 132 126 125 108 122 188 222 201 198 227 252 177 121 321 253 311 291 294 313 318 331 330 331 302
354 347 335 343 357 3 359 87 77 53 105 84 106 155 139 94 113 133 134 145 142 138 148 193 196 199 207 227 255 142 233 202 258 104 295 261 269 306 15 328 5 5 0 356 345
351 345 334 335 47 27 25 106 185 118 32 346 71 68 116 116 130 142 138 141 154 214 179 189 213 58 43 22 36 31 271 285 305 76 298 275 284 282 355 16 22 17 15 8 4
355 349 341 305 139 71 56 96 56 154 137 73 88 94 133 152 130 136 154 194 206 134 164 202 86 71 88 148 234 253 269 288 275 310 302 287 289 279 71 49 41 26 22 12 7
2 4 5 137 155 108 85 64 47 89 208 139 133 126 122 156 114 133 173 134 119 159 184 33 71 139 223 185 250 237 319 326 312 309 270 279 266 216 133 80 43 31 25 17 9
12 20 47 107 129 140 36 2 24 126 199 146 166 133 162 159 133 148 173 286 181 117 160 74 78 165 256 38 297 267 9 290 297 305 302 20 295 184 156 134 38 23 22 18 14
30 38 60 77 125 90 270 341 132 212 214 149 148 138 174 266 108 134 188 226 261 130 255 93 180 323 277 34 326 350 319 293 292 288 290 251 244 116 141 129 17 14 19 16 18
38 43 51 63 56 301 289 103 143 227 179 150 155 178 194 136 108 133 182 182 115 226 293 103 124 341 10 255 300 305 287 281 278 256 241 94 267 106 57 12 3 14 21 18 26
19 20 20 19 338 341 228 172 217 260 144 146 148 189 160 122 115 319 210 192 271 246 197 169 188 160 321 270 188 304 303 276 233 202 297 123 270 59 86 35 19 17 25 27 37
292 8 7 10 354 348 165 218 244 69 134 116 152 137 203 334 116 159 213 222 126 273 284 276 202 201 10 355 323 315 318 299 287 292 325 185 249 104 67 66 38 32 42 39 55
296 296 358 356 354 325 222 228 42 68 69 175 162 217 159 144 306 241 279 302 20 347 276 285 210 136 31 342 301 96 262 16 286 235 264 230 137 148 106 73 30 25 36 60 70
328 255 344 346 349 138 231 56 117 45 346 242 239 280 209 151 247 251 207 90 128 41 347 61 280 169 111 257 140 290 52 218 197 262 263 210 255 274 92 360 4 15 45 112 113
32 227 346 338 12 235 174 84 108 56 5 340 333 187 62 340 314 290 59 107 305 115 337 312 256 139 215 210 294 178 207 241 304 273 277 285 264 79 327 15 334 340 327 172 166
32 250 351 28 208 6 77 28 339 3 29 79 296 149 241 213 275 256 254 347 110 261 288 56 293 273 299 91 283 273 265 256 267 220 258 307 273 43 104 358 328 311 274 216 194
15 11 359 23 48 73 91 120 36 0 27 274 191 255 219 234 263 231 208 108 134 249 269 154 228 276 189 191 200 244 222 247 268 273 261 262 255 135 237 291 302 287 273 236 229
358 301 43 50 55 353 6 55 189 14 53 301 267 222 212 227 211 210 211 152 198 244 276 267 266 259 279 316 318 246 237 236 246 261 260 246 270 283 299 310 303 290 269 251 228
15 75 352 27 57 23 312 307 292 332 302 269 204 237 225 242 231 230 236 218 203 186 233 253 263 269 268 279 281 268 271 268 248 251 261 280 291 297 304 316 318 308 299 253 232
16 278 120 103 318 304 141 54 298 326 292 194 274 309 254 252 259 280 247 253 274 186 248 211 263 272 273 275 268 276 270 264 259 262 266 275 278 282 290 308 322 317 300 252 231
118 97 191 142 186 288 57 166 234 318 257 245 347 297 242 290 315 293 292 284 275 270 256 246 265 247 282 306 292 273 261 252 256 258 262 268 294 350 307 324 328 322 305 249 204